Location: ?????????
(38.5999°N, 22.7695°E)
Time: 09:32:30
(UTC+00:00)

ALOS - Pass Details

Date: 23 May 2024
Orbit: 672 x 676 km, 98.0° (Epoch: 18 June)

Event Time Altitude Azimuth Distance (km) Brightness Sun altitude
Rises 01:23:26 0° 10° (N) 3,033 6.6 -17.6°
Reaches altitude 10° 01:25:40 10° 8° (N) 2,114 5.6 -17.3°
Maximum altitude 01:30:16 71° 285° (WNW) 712 2.2 -16.7°
Enters shadow 01:32:44 27° 206° (SSW) 1,280 3.1 -16.3°
